Simultaneous Nadir Overpasses (SNOs) Predictions

Prediction of SNOs between AQUA and METOP-B Satellite Orbit:

Table of predicted SNOs for the next 14.0 days since TLE Epoch: 10/3/2014
Index Date (AQUA) Time (AQUA) Lat,Lon (AQUA) SZA (AQUA ) Date (METOP-B) Time (METOP-B) Lat,Lon (METOP-B) SZA (METOP-B ) Distance(km) Time Diff (sec)
1 10/05/2014 18:17:51 73.65, -99.86 78.49 10/05/2014 18:16:39 73.58,-100.53 78.43 22.38 72
2 10/05/2014 19:07:20 -73.84, 67.37 101.31 10/05/2014 19:07:15 -73.84, 67.41 101.31 0.95 5
3 10/05/2014 19:56:49 73.91,-125.15 78.78 10/05/2014 19:57:54 73.91,-125.10 78.77 1.63 65
4 10/08/2014 13:52:03 73.76, -33.64 79.67 10/08/2014 13:50:54 73.75, -33.73 79.67 3.34 69
5 10/08/2014 14:41:30 -73.84, 133.83 100.24 10/08/2014 14:41:33 -73.86, 133.85 100.22 1.67 3
6 10/08/2014 15:30:59 73.92, -58.71 79.86 10/08/2014 15:32:12 73.92, -58.66 79.86 1.53 73
7 10/11/2014 09:26:13 73.77, 32.81 80.75 10/11/2014 09:25:12 73.80, 32.81 80.78 3.80 61
8 10/11/2014 10:15:40 -73.85,-159.72 99.17 10/11/2014 10:15:52 -73.86,-159.72 99.15 1.69 12
9 10/11/2014 11:05:15 74.24, 7.02 81.26 10/11/2014 11:06:24 74.27, 8.62 81.27 48.36 69
10 10/14/2014 05:00:22 73.78, 99.25 81.81 10/14/2014 04:59:31 73.80, 99.21 81.83 2.19 51
11 10/14/2014 05:49:49 -73.85, -93.27 98.11 10/14/2014 05:50:11 -73.86, -93.32 98.10 1.43 22
12 10/17/2014 00:34:29 73.80, 165.68 82.87 10/17/2014 00:33:49 73.78, 165.59 82.86 3.08 40
13 10/17/2014 01:23:56 -73.87, -26.83 97.06 10/17/2014 01:24:28 -73.89, -26.82 97.03 3.00 32




NCC Satellite Simultaneous Nadir Overpasses (SNOs) Prediction Service
